This demonstration page uses our WeatherBlox Daily Observations layout. Learn more.

Left ArrowRight Arrow

39.92423, -83.80882

Hourly Observations for November 6, 2015

Temp ( °F °C ) Dew Point ( °F °C ) Humidity (%) Winds ( mph kmh ) Pressure ( in mb ) Visibility ( mi km ) Precip ( " mm )
12:56 am 00:56 Mostly Cloudy with Light Rain 66 18.8 62 16.6 87 87 SSW 14 22 29.94 1014 5 8.0467 0 0.0254
1:56 am 01:56 Mostly Cloudy 65 18.3 64 17.7 96 96 S 9 15 29.89 1012 8 12.87472 0.04 1.016
2:56 am 02:56 Cloudy with Mist and Fog 66 18.8 64 17.7 93 93 S 14 22 29.91 1013 6 9.65604 0.01 0.254
3:10 am 03:10 Cloudy with Rain 66 19 64 18 94 94 SSW 14 22 29.91 1013 3 4.82802 0.04 1.016
3:17 am 03:17 Mostly Cloudy with Rain 64 18 64 18 100 100 SSW 15 24 29.91 1013 2 3.21868 0.07 1.778
3:37 am 03:37 Mostly Cloudy with Mist and Fog 64 18 64 18 100 100 SSW 17 28 29.91 1013 3 4.82802 0.12 3.048
3:56 am 03:56 Cloudy with Light Rain 65 18.3 65 18.3 100 100 SW 17 28 29.92 1013 4 6.43736 0.17 4.318
4:31 am 04:31 Cloudy with Rain 64 18 64 18 100 100 SW 20 31 29.91 1013 4 6.43736 0.14 3.556
4:41 am 04:41 Mostly Cloudy with Rain 64 18 64 18 100 100 SW 16 26 29.91 1013 3 4.82802 0.18 4.572
4:56 am 04:56 Mostly Cloudy with Rain 65 18.3 64 17.7 96 96 SSW 17 28 29.92 1013 4 6.43736 0.23 5.842
5:56 am 05:56 Cloudy 64 17.7 63 17.2 97 97 S 12 19 29.87 1012 9 14.48406 0.04 1.016
6:56 am 06:56 Cloudy 64 17.7 63 17.2 97 97 S 9 15 29.89 1012 10 16.0934 0.03 0.762
7:56 am 07:56 Mostly Cloudy with Mist and Fog 64 17.7 64 17.7 100 100 SSW 15 24 29.92 1013 3 4.82802 0.01 0.254
8:09 am 08:09 Cloudy with Light Rain 64 18 64 18 100 100 SSW 17 28 29.91 1013 5 8.0467 0.01 0.254
8:24 am 08:24 Cloudy 64 18 64 18 100 100 SSW 16 26 29.91 1013 10 16.0934 0.01 0.254
8:56 am 08:56 Partly Cloudy 65 18.3 64 17.7 96 96 SW 16 26 29.94 1014 10 16.0934 0.01 0.254
9:56 am 09:56 Mostly Cloudy 67 19.4 63 17.2 87 87 SW 16 26 29.96 1014 10 16.0934 0 0
10:49 am 10:49 Partly Cloudy 66 19 61 16 83 83 SW 17 28 29.97 1015 10 16.0934 0 0
10:56 am 10:56 Partly Cloudy 67 19.4 61 16.1 81 81 WSW 14 22 29.98 1015 10 16.0934 0 0
11:56 am 11:56 Sunny 69 20.5 58 14.4 68 68 WSW 20 31 30 1016 10 16.0934 0 0
12:56 pm 12:56 Mostly Sunny 68 20 54 12.2 61 61 WSW 20 31 29.98 1015 10 16.0934 0 0
1:56 pm 13:56 Sunny 67 19.4 50 10 55 55 WSW 20 31 30 1016 10 16.0934 0 0
2:56 pm 14:56 Sunny 66 18.8 47 8.3 51 51 WSW 13 20 30.01 1016 10 16.0934 0 0
3:56 pm 15:56 Sunny 64 17.7 49 9.4 58 58 WSW 14 22 30.03 1017 10 16.0934 0 0
4:56 pm 16:56 Sunny 60 15.5 49 9.4 67 67 WSW 14 22 30.04 1017 10 16.0934 0 0
5:56 pm 17:56 Clear 58 14.4 49 9.4 72 72 W 12 19 30.07 1018 10 16.0934 0 0
6:56 pm 18:56 Clear 55 12.7 48 8.8 77 77 NW 9 15 30.1 1019 10 16.0934 0 0
7:56 pm 19:56 Clear 52 11.1 45 7.2 77 77 WNW 10 17 30.13 1020 10 16.0934 0 0
8:56 pm 20:56 Clear 50 10 44 6.6 80 80 WNW 7 11 30.14 1021 10 16.0934 0 0
9:56 pm 21:56 Clear 49 9.4 44 6.6 83 83 NW 7 11 30.15 1021 10 16.0934 0 0
10:56 pm 22:56 Clear 48 8.8 43 6.1 83 83 NW 6 9 30.17 1022 10 16.0934 0 0
11:56 pm 23:56 Clear 46 7.7 42 5.5 86 86 WNW 5 7 30.16 1021 10 16.0934 0 0

Powered by AerisWeather